This is the latest recevied weather packets stored in our database for station/object F4AMY-13. If no packets are shown the sender has not sent any weather packets the latest 10 day(s).
| Time | Temp. | Humidity | Pressure | Rain* | Wind** | Luminosity | Snow |
|---|---|---|---|---|---|---|---|
| 1777213847 | 20° C | 71% | 1015.8 hPa | 0 mm | 35.32 m/s, ° | 79 W/m² | - |
| 1777213547 | 20.56° C | 71% | 1015.8 hPa | 0 mm | 33.53 m/s, ° | 75 W/m² | - |
| 1777213247 | 20.56° C | 70% | 1015.8 hPa | 0 mm | 36.21 m/s, ° | 81 W/m² | - |
| 1777212947 | 21.11° C | 69% | 1015.8 hPa | 0 mm | 37.1 m/s, ° | 83 W/m² | - |
| 1777212647 | 21.67° C | 69% | 1015.8 hPa | 0 mm | 40.68 m/s, ° | 91 W/m² | - |
| 1777212348 | 22.78° C | - | - | - | - | - | - |
| 1777212347 | 22.78° C | 69% | 1015.8 hPa | 0 mm | 38.89 m/s, ° | 87 W/m² | - |
| 1777212047 | 23.33° C | 65% | 1015.8 hPa | 0 mm | 42.02 m/s, ° | 94 W/m² | - |
| 1777211747 | 23.89° C | 65% | 1015.7 hPa | 0 mm | 47.83 m/s, ° | 107 W/m² | - |
| 1777211447 | 24.44° C | 63% | 1015.6 hPa | 0 mm | 76 m/s, ° | 170 W/m² | - |
| 1777211147 | 25° C | 61% | 1015.7 hPa | 0 mm | 66.16 m/s, ° | 148 W/m² | - |
| 1777210847 | 25° C | 58% | 1015.6 hPa | 0 mm | 78.23 m/s, ° | 175 W/m² | - |
| 1777210547 | 25° C | 58% | 1015.6 hPa | 0 mm | 114.44 m/s, ° | 256 W/m² | - |
| 1777210247 | 25° C | 58% | 1015.7 hPa | 0 mm | 141.26 m/s, ° | 316 W/m² | - |
| 1777209947 | 25° C | 55% | 1015.6 hPa | 0 mm | 118.91 m/s, ° | 266 W/m² | - |
| 1777209647 | 25° C | 59% | 1015.9 hPa | 0 mm | 157.81 m/s, ° | 353 W/m² | - |
| 1777209346 | 25° C | 58% | 1015.6 hPa | 0 mm | 162.72 m/s, ° | 364 W/m² | - |
| 1777209046 | 25° C | 55% | 1015.8 hPa | 0 mm | 186.42 m/s, ° | 417 W/m² | - |
| 1777208746 | 24.44° C | 57% | 1015.8 hPa | 0 mm | 183.73 m/s, ° | 411 W/m² | - |
| 1777208446 | 24.44° C | 57% | 1015.9 hPa | 0 mm | 185.07 m/s, ° | 414 W/m² | - |
| 1777208146 | 24.44° C | 58% | 1015.8 hPa | 0 mm | 189.99 m/s, ° | 425 W/m² | - |
| 1777207846 | 24.44° C | 57% | 1015.9 hPa | 0 mm | 199.38 m/s, ° | 446 W/m² | - |
| 1777207546 | 24.44° C | 57% | 1015.8 hPa | 0 mm | 189.1 m/s, ° | 423 W/m² | - |
| 1777207246 | 23.89° C | 58% | 1016 hPa | 0 mm | 178.37 m/s, ° | 399 W/m² | - |
| 1777206946 | 23.89° C | 60% | 1015.7 hPa | 0 mm | 158.25 m/s, ° | 354 W/m² | - |
* Rain latest hour (hover to see other rain measurements)
** Current wind speed in m/s (hover to see current wind gust speed)